Temperature
20 19 19 19 18 18 20 20 21 21 20 19 19 20 20 20 20 20 19 20 20 20 20 19 19 19 20 20 20 20 19 19 19 19 19 19 19 19 19 19 19 19 19 18 18 18 18 18 18
20 19 19 19 18 19 20 21 20 20 20 20 20 20 20 20 19 19 19 19 20 20 20 19 19 19 19 19 19 19 19 19 19 19 19 19 19 19 19 19 19 19 19 18 18 18 18 18 18
20 19 19 18 19 19 21 21 20 20 20 20 20 20 20 19 19 19 19 19 20 20 20 19 19 19 19 19 19 19 19 19 19 19 19 19 19 19 19 18 18 18 18 18 18 18 18 18 18
20 19 19 18 20 20 21 21 20 20 20 20 20 19 19 19 19 20 20 19 19 20 19 19 19 19 19 19 19 19 19 19 19 19 19 19 18 18 18 18 18 18 18 18 18 18 18 18 18
20 19 18 18 19 20 21 21 21 20 20 20 20 19 19 19 20 20 20 19 20 19 19 19 19 19 19 19 19 19 19 19 19 19 19 18 18 18 18 18 18 18 18 18 18 18 18 18 17
20 18 18 19 20 21 21 20 20 20 20 20 20 19 19 20 20 20 20 19 19 19 19 19 19 19 19 19 19 19 19 19 19 18 18 18 18 18 18 18 18 18 18 18 18 18 18 18 17
20 17 18 20 20 21 20 20 20 20 19 19 20 19 18 19 20 20 19 19 19 19 19 19 19 19 19 19 19 19 19 19 18 18 18 18 18 18 18 17 17 18 18 18 18 18 17 17 17
21 17 19 19 21 21 20 19 19 19 19 19 20 19 18 19 19 19 19 19 19 19 19 19 19 19 19 19 19 19 18 18 18 18 18 18 18 18 17 17 17 17 17 17 17 17 17 17 17
21 17 18 20 21 21 20 19 19 19 19 19 19 19 20 20 19 19 19 19 19 19 19 19 19 19 19 19 18 18 18 18 18 18 18 18 17 17 17 17 17 17 17 17 17 17 17 17 17
20 17 19 21 22 21 20 19 19 19 18 18 18 19 19 19 19 19 19 19 19 19 19 19 19 19 19 18 18 18 18 18 18 18 17 17 17 17 17 17 17 17 17 17 17 17 17 17 17
20 19 20 21 22 21 20 19 19 18 18 18 18 19 19 19 19 19 19 19 19 19 19 19 19 19 18 18 18 18 18 18 17 17 17 17 17 17 17 17 17 17 17 17 17 17 17 17 17
20 20 21 22 21 21 20 19 18 18 18 19 19 19 19 18 19 19 19 19 19 19 19 19 18 18 18 18 18 18 18 17 17 17 17 17 17 17 17 17 17 17 17 16 16 16 16 16 16
21 21 21 21 21 20 19 18 18 18 19 19 19 19 18 19 19 19 19 19 19 19 19 19 18 18 18 18 18 18 17 17 17 17 17 17 16 16 16 16 16 16 16 16 16 16 16 16 16
22 21 21 20 20 20 19 18 18 18 19 18 18 18 18 19 19 19 19 19 19 19 19 19 18 18 18 18 18 17 17 17 17 17 17 16 16 16 16 16 15 15 15 15 15 15 15 16 16
22 20 20 20 20 19 19 19 18 18 18 18 18 18 18 18 19 19 19 19 19 19 19 19 18 18 18 17 17 17 17 17 17 17 16 16 16 16 15 15 15 15 15 15 15 15 15 15 15
21 20 20 20 20 19 19 19 19 18 18 18 17 18 18 18 18 19 19 19 19 19 19 19 18 18 18 17 17 17 17 17 16 16 16 16 15 15 15 15 14 14 14 14 14 14 14 14 15
20 20 21 21 20 20 19 19 18 18 18 17 17 17 18 18 18 18 19 19 19 19 18 18 18 18 18 17 17 17 17 16 16 16 15 15 15 15 14 14 14 14 14 14 14 14 14 14 14
21 21 21 20 20 19 18 18 18 17 17 17 17 17 17 18 18 18 18 18 18 18 18 18 18 18 18 17 17 17 17 16 16 15 15 15 15 14 14 14 14 13 13 13 13 13 13 14 14
22 22 21 21 20 19 18 18 18 17 17 17 17 17 17 18 18 18 18 18 18 17 18 18 18 18 18 17 17 17 17 16 16 15 15 15 14 14 14 13 13 13 13 13 13 13 13 13 14
21 21 21 21 20 20 18 18 18 17 17 17 17 17 17 17 17 17 17 17 17 18 18 18 18 18 18 17 17 17 17 16 16 15 15 14 14 14 13 13 13 13 13 13 13 13 13 13 13
22 21 21 20 20 19 19 18 18 17 17 17 17 17 18 17 17 17 17 17 17 17 18 18 18 18 18 17 17 17 16 16 15 15 15 14 14 14 13 13 13 13 13 12 13 13 13 13 13
22 22 21 20 19 18 18 17 18 17 17 17 17 18 18 18 18 18 18 18 18 18 18 18 18 18 18 17 17 17 16 16 16 15 15 14 14 13 13 13 13 12 12 12 12 12 12 12 12
22 20 20 19 18 17 17 17 17 17 17 17 17 18 18 18 18 18 18 18 18 18 18 18 18 18 18 17 17 17 16 16 15 15 15 14 14 13 13 13 13 12 12 12 12 12 12 12 12
20 19 18 16 16 18 18 17 17 16 17 18 18 18 19 19 19 19 19 19 18 18 18 18 18 18 17 17 17 17 16 16 15 15 15 14 14 13 13 13 13 12 12 12 12 12 12 11 11
20 19 18 19 17 18 18 17 17 18 18 18 18 19 19 19 19 19 19 19 19 18 18 18 18 18 18 17 17 17 16 16 15 15 15 14 14 14 13 13 13 12 12 12 12 12 11 11 11
20 20 19 20 19 18 18 18 18 19 19 20 20 20 20 20 19 20 20 20 19 19 19 19 19 18 18 18 17 17 16 16 15 15 15 14 14 13 13 13 13 12 12 12 12 11 11 11 11
20 19 18 17 18 18 18 18 18 19 19 19 19 19 20 20 20 20 20 20 20 20 20 19 19 19 18 18 17 17 16 16 16 15 15 14 14 13 13 13 13 12 12 12 12 12 11 11 11
20 17 16 17 18 19 19 19 18 20 20 19 18 19 20 21 21 21 21 21 21 21 20 20 20 19 19 18 18 17 16 16 16 15 15 15 14 14 13 13 13 13 12 12 12 12 11 11 11
20 19 16 15 16 18 19 19 19 19 19 19 19 21 22 22 22 22 22 22 21 21 21 20 20 20 19 18 18 17 17 16 16 16 15 15 15 14 14 14 13 13 13 12 12 12 12 11 11
21 19 17 18 18 16 17 18 20 19 19 19 20 21 22 22 23 22 22 22 22 21 21 21 20 20 19 19 18 17 17 16 16 16 16 15 15 15 14 14 14 13 13 13 12 12 12 12 11
Wind_Speed
6 4 1 1 3 4 1 1 2 2 3 2 1 0 1 2 2 2 2 8 13 12 14 18 18 18 18 18 17 17 16 16 15 14 14 13 12 11 11 10 10 9 9 9 9 9 9 9 10
5 3 1 2 3 2 1 2 3 2 4 4 3 2 1 1 2 4 5 8 12 12 14 16 18 18 18 17 17 16 16 15 14 13 12 11 11 10 9 9 9 9 8 8 8 9 9 9 9
4 1 3 3 2 2 2 3 5 5 4 4 3 2 1 1 3 4 6 11 10 10 13 16 19 18 17 17 16 15 15 14 13 12 11 10 10 9 9 8 8 8 7 7 7 7 8 8 8
3 3 3 3 1 3 3 4 6 6 2 2 4 4 1 2 2 7 13 12 11 8 11 16 18 18 17 16 16 15 14 13 12 11 10 9 8 8 7 6 6 6 6 6 6 6 6 6 6
3 4 4 2 4 3 1 5 7 5 4 3 4 4 2 3 9 14 14 12 11 8 10 15 17 17 17 16 15 14 14 13 12 11 9 8 7 7 6 5 5 5 4 4 5 5 5 5 4
4 4 3 2 4 2 1 3 4 4 4 3 5 5 2 4 10 13 12 10 9 8 9 13 17 17 16 16 15 14 13 12 11 10 8 7 6 5 5 4 4 4 3 3 3 4 4 3 3
4 4 2 3 3 2 3 2 3 3 4 3 3 5 3 5 7 11 10 9 7 7 7 9 12 14 15 15 14 13 12 11 10 9 8 7 6 5 4 3 3 3 3 3 3 3 3 3 2
4 4 1 2 4 4 3 3 2 3 2 1 2 5 5 8 10 11 11 8 7 5 5 6 8 10 11 12 13 12 11 10 9 8 7 6 4 3 3 2 2 2 3 3 3 4 3 3 2
4 3 2 5 5 4 5 4 2 1 2 1 1 1 4 13 14 12 11 8 6 6 4 4 6 7 9 9 10 10 10 9 8 6 6 5 4 3 2 1 1 2 2 2 2 2 2 2 1
4 3 7 5 4 5 7 5 5 2 2 2 2 3 10 14 14 13 12 10 9 8 6 4 5 6 7 7 8 8 8 8 8 7 7 7 6 5 4 4 3 2 1 1 0 0 1 0 0
6 6 5 4 3 4 5 4 3 3 3 4 7 10 12 13 11 11 10 9 8 7 7 5 5 5 5 5 7 7 8 8 8 8 8 8 7 6 6 5 5 5 4 4 3 3 3 2 1
5 5 4 3 0 3 5 4 2 3 2 2 8 12 12 13 11 10 10 8 7 7 6 6 5 4 5 6 6 7 7 6 6 7 8 7 5 5 5 5 4 4 4 4 3 3 3 3 2
4 3 1 1 3 4 5 3 2 2 0 4 9 11 12 12 9 7 7 8 7 7 6 6 6 5 5 5 5 6 6 6 7 7 7 7 5 3 4 4 5 5 4 4 3 3 3 3 3
2 0 1 2 3 2 4 1 1 3 4 6 8 8 9 9 8 7 7 7 7 6 6 6 6 6 6 4 4 5 6 8 7 6 6 6 6 5 4 4 4 5 5 4 4 3 2 2 2
2 2 3 1 1 1 4 1 4 2 4 6 6 7 7 6 6 8 9 9 8 7 6 6 7 6 6 5 5 6 7 7 6 6 6 6 6 6 5 3 3 4 5 5 5 4 4 2 2
3 3 2 3 3 3 3 6 4 3 4 5 5 6 6 5 5 6 6 7 7 7 6 6 7 7 7 5 5 6 7 7 6 6 6 6 6 6 6 4 3 4 5 5 3 3 2 3 3
3 2 3 3 4 4 4 6 1 3 4 4 4 5 5 5 4 5 6 8 7 8 7 6 6 8 7 6 5 6 6 5 5 5 5 5 6 6 6 4 4 5 5 4 3 3 2 2 3
5 4 4 4 3 4 4 5 2 3 5 6 6 6 6 6 6 6 7 8 7 7 7 7 7 7 7 5 5 4 4 3 4 4 4 5 5 6 6 5 4 4 4 3 3 3 3 2 2
5 5 6 4 2 3 5 6 4 4 5 6 6 6 7 7 5 7 7 8 8 7 7 7 8 7 7 4 4 4 3 2 2 3 4 5 5 5 5 4 3 3 3 3 2 2 3 4 3
5 4 4 1 1 2 2 5 3 4 6 6 6 7 7 6 7 8 8 9 9 9 8 8 8 8 7 5 4 3 3 2 2 1 2 4 4 5 4 4 3 2 3 3 3 3 2 3 4
3 5 4 3 2 3 2 5 3 3 3 4 5 5 6 9 9 9 9 9 9 10 10 10 8 8 7 6 5 4 4 3 2 1 1 2 4 4 4 4 3 3 2 2 2 2 2 2 3
4 4 4 4 3 2 2 3 5 3 4 6 6 6 7 8 8 9 10 10 11 11 9 8 8 8 7 7 7 7 5 4 4 3 2 2 2 3 5 5 4 3 2 2 1 2 1 2 2
3 4 5 4 4 2 3 0 7 1 5 8 9 9 8 9 10 11 12 12 10 9 8 8 8 7 7 7 8 7 5 3 2 2 2 1 1 2 4 6 5 3 2 2 2 2 1 1 1
6 6 6 6 5 2 2 1 6 4 7 6 7 9 9 10 10 9 8 8 7 8 8 8 8 7 7 8 7 8 8 6 5 4 3 2 1 1 2 5 5 4 3 2 2 2 2 1 1
4 5 4 5 5 5 2 2 8 7 7 7 9 10 11 10 10 10 10 10 10 10 10 9 9 8 8 8 8 8 8 8 7 6 5 4 2 2 3 4 4 3 3 3 3 2 2 2 2
4 7 6 4 4 5 2 5 8 5 5 5 6 7 9 10 11 12 12 12 11 11 10 11 11 9 9 9 8 7 7 6 5 6 5 5 4 4 3 4 4 4 4 4 3 2 2 2 2
6 3 5 6 2 2 5 7 8 2 1 3 5 7 9 11 12 12 12 12 12 12 12 12 12 10 10 10 8 7 7 7 7 6 5 4 4 4 4 5 4 4 4 4 3 3 3 3 3
4 8 6 5 3 3 6 5 5 6 5 5 7 9 10 10 10 11 11 12 12 11 11 10 11 12 10 10 9 8 8 8 7 6 6 6 5 4 5 5 5 4 4 4 3 3 3 3 3
4 4 5 4 4 5 3 7 6 8 8 9 11 10 11 12 12 12 11 11 10 9 9 11 11 10 9 10 9 9 8 8 7 7 7 7 6 6 6 6 5 5 5 4 4 4 4 4 4
4 6 7 4 4 4 4 8 6 6 7 8 10 10 9 10 11 10 10 9 10 11 10 11 12 12 11 11 10 9 8 8 8 8 8 7 7 7 7 6 6 6 5 5 5 5 5 5 6
Wind_Direction
164 155 141 82 58 54 93 198 165 155 133 133 80 358 282 280 260 266 90 134 134 139 149 152 148 143 138 134 131 129 129 129 128 128 129 129 129 130 129 127 126 123 120 117 114 111 109 107 105
145 155 75 57 74 48 283 193 162 154 150 154 108 64 356 37 70 102 121 136 136 139 145 152 149 145 142 138 136 134 134 134 133 133 133 133 133 134 134 131 129 127 124 122 120 117 113 110 107
155 148 84 69 87 183 223 190 157 130 120 140 125 101 37 99 126 122 138 136 126 131 143 154 151 149 146 143 140 139 138 138 139 139 139 140 141 142 140 137 135 134 131 130 126 123 120 116 114
129 63 58 65 270 238 216 180 155 151 119 91 125 102 64 23 130 133 135 135 127 123 140 153 152 150 148 146 143 142 142 142 143 144 145 147 148 147 146 144 143 143 143 138 134 131 128 124 120
74 82 60 10 276 259 207 160 165 159 154 137 125 109 75 19 110 128 134 139 135 129 138 149 150 150 148 147 146 146 147 148 149 150 151 153 153 154 154 154 153 151 153 152 147 144 140 136 129
66 70 78 300 282 266 114 151 156 154 155 150 131 118 78 107 124 133 135 136 135 131 132 146 151 151 150 150 150 151 151 151 152 154 155 156 156 157 161 160 160 166 174 173 173 169 161 153 142
109 105 169 244 272 254 192 166 180 171 157 162 148 120 119 133 137 130 125 122 120 120 124 134 147 152 153 153 153 153 152 152 152 152 153 156 157 159 165 173 181 186 190 196 197 200 196 185 179
137 108 290 262 245 239 169 161 199 161 157 127 138 138 167 162 140 125 117 113 118 115 114 122 133 141 147 152 153 153 152 151 150 153 156 156 151 155 166 182 206 209 211 214 217 223 226 221 210
113 78 247 235 222 222 173 172 178 113 103 92 36 98 142 139 133 128 125 125 137 143 124 121 126 131 137 144 152 150 147 145 139 137 135 122 101 79 55 32 236 230 237 235 239 241 240 240 235
119 173 234 228 219 191 177 180 171 161 156 153 124 99 124 134 138 143 149 156 162 165 160 145 142 140 142 146 131 123 118 115 110 107 104 96 88 74 61 40 33 29 322 284 304 317 337 355 353
171 208 249 271 240 166 164 170 155 155 210 207 167 151 142 142 145 154 159 165 170 167 170 163 154 146 141 125 123 115 110 108 106 108 107 99 86 71 58 49 35 34 33 35 35 41 33 37 52
186 247 247 285 60 133 146 145 154 190 221 153 152 151 148 151 159 162 167 164 163 163 173 164 151 140 140 129 124 120 117 113 110 111 110 104 87 69 56 50 41 41 36 39 39 37 33 31 32
208 256 288 62 71 107 113 125 155 208 154 115 125 142 150 157 164 173 171 162 160 166 170 163 152 149 140 130 130 126 123 122 122 117 112 111 104 89 73 57 52 49 50 54 46 39 30 27 22
214 159 41 57 75 105 127 130 164 207 147 140 134 141 152 158 163 166 169 166 165 166 166 156 154 148 140 138 128 128 129 127 123 119 117 112 107 100 83 61 48 42 44 55 61 56 42 13 7
90 68 17 24 98 139 105 289 239 197 134 143 148 146 146 158 170 182 183 173 170 164 157 157 155 141 138 138 137 135 137 134 128 126 122 113 107 101 94 76 53 38 45 60 63 53 46 30 13
73 78 310 258 174 170 155 247 230 150 147 159 157 153 153 170 182 193 184 166 160 155 157 166 159 145 140 138 135 136 141 136 131 132 126 118 111 110 101 87 63 48 56 60 63 45 41 24 13
25 304 265 269 192 168 193 255 243 143 160 183 178 172 170 172 186 185 177 162 159 158 157 160 147 144 140 133 130 130 128 127 133 134 131 126 115 111 102 90 72 64 62 51 57 51 46 22 0
261 263 253 245 216 173 217 258 236 178 187 196 189 182 180 188 197 175 160 152 152 153 155 157 144 136 129 120 109 100 99 106 129 141 147 141 129 121 107 93 77 72 67 52 50 57 43 29 353
233 240 255 253 172 170 233 255 244 193 209 216 199 191 190 195 180 165 154 153 155 160 160 159 150 147 143 137 136 137 147 147 147 169 167 156 147 139 121 106 88 77 74 61 52 64 44 25 3
212 238 260 282 116 158 254 273 257 204 217 223 211 202 195 177 166 168 162 160 167 176 176 167 164 161 164 155 147 143 135 140 147 148 162 177 167 157 143 129 116 103 88 63 46 52 59 28 25
219 206 226 201 79 48 1 319 278 241 235 239 228 204 192 181 178 178 173 172 173 186 186 179 174 167 164 146 122 102 83 72 89 137 188 209 192 180 163 154 142 128 111 97 68 59 78 55 26
253 242 177 137 105 332 29 301 288 249 257 243 234 213 197 186 180 181 176 177 188 196 184 172 172 166 161 154 153 152 157 170 193 185 189 204 199 193 184 171 159 147 131 124 105 93 85 96 49
184 65 90 91 104 28 17 280 289 291 252 242 227 217 204 189 183 186 186 186 189 186 178 171 166 166 164 163 163 156 155 166 155 149 169 185 217 210 196 179 168 165 159 155 142 126 116 115 120
119 74 56 52 63 347 269 184 281 237 226 235 219 211 205 197 190 191 189 177 178 176 174 169 169 175 170 167 166 165 166 163 159 170 175 189 212 237 197 180 177 179 178 184 185 169 158 157 147
91 88 25 354 1 270 247 224 254 249 228 216 209 207 200 194 191 191 189 186 185 183 181 176 178 183 178 173 175 177 176 173 179 182 185 185 191 206 203 180 182 189 199 202 193 188 193 186 186
173 145 159 212 243 285 299 251 257 258 242 217 194 192 189 188 193 196 196 194 194 192 186 182 186 189 182 181 185 182 178 177 186 188 184 189 196 204 197 191 197 206 209 208 198 204 214 204 211
138 155 157 134 142 298 288 287 302 269 242 192 179 179 190 194 196 200 198 196 196 195 193 190 190 190 188 187 183 184 184 186 189 187 184 189 199 204 197 199 204 213 213 211 200 216 228 216 226
123 140 104 118 150 269 298 289 264 252 219 197 194 197 205 201 200 203 200 200 202 200 196 188 190 194 190 185 186 192 191 193 187 180 190 199 204 202 193 204 210 217 221 216 210 227 232 228 237
116 106 107 115 152 166 263 277 234 224 208 200 208 207 204 202 203 204 204 202 200 195 190 190 192 191 187 188 189 188 191 191 187 193 202 202 203 202 204 210 214 223 230 225 220 235 240 241 250
164 167 150 154 214 179 193 267 277 236 221 207 211 212 208 208 207 203 200 193 192 193 193 194 194 194 195 189 187 192 190 186 192 204 209 203 206 209 210 211 217 228 232 228 226 239 241 240 250
Height
1514 1515 1516 1517 1519 1525 1527 1522 1516 1517 1517 1517 1518 1518 1518 1520 1522 1526 1521 1521 1526 1529 1533 1537 1540 1542 1545 1546 1548 1549 1551 1552 1552 1553 1554 1554 1555 1555 1556 1556 1556 1557 1557 1557 1557 1558 1558 1558 1558
1514 1515 1517 1517 1523 1533 1528 1518 1517 1515 1515 1514 1515 1516 1517 1518 1518 1519 1519 1523 1527 1531 1534 1537 1541 1543 1546 1547 1549 1550 1552 1553 1554 1554 1555 1556 1556 1556 1557 1557 1558 1558 1558 1559 1559 1559 1559 1560 1560
1514 1516 1518 1518 1524 1529 1523 1515 1514 1515 1514 1513 1514 1515 1517 1518 1517 1518 1520 1524 1529 1532 1535 1539 1542 1544 1546 1548 1550 1551 1552 1553 1554 1555 1556 1557 1557 1558 1558 1558 1559 1559 1560 1560 1560 1561 1561 1561 1562
1515 1517 1518 1522 1524 1518 1514 1511 1512 1513 1513 1512 1513 1516 1517 1519 1518 1520 1522 1526 1530 1534 1537 1540 1543 1545 1547 1549 1551 1552 1553 1554 1555 1556 1557 1557 1558 1559 1559 1559 1560 1560 1561 1561 1561 1562 1562 1563 1563
1515 1516 1521 1526 1521 1514 1510 1509 1510 1511 1511 1511 1512 1514 1517 1519 1520 1521 1524 1528 1532 1535 1538 1541 1544 1546 1548 1550 1551 1553 1554 1555 1556 1557 1558 1558 1559 1559 1560 1560 1561 1561 1562 1562 1562 1563 1563 1564 1565
1516 1517 1528 1530 1520 1512 1510 1509 1509 1510 1510 1511 1512 1514 1517 1519 1521 1523 1526 1529 1533 1536 1539 1542 1544 1547 1548 1550 1552 1553 1554 1555 1556 1557 1558 1559 1559 1560 1561 1561 1561 1562 1562 1563 1563 1564 1564 1565 1565
1517 1521 1526 1524 1519 1513 1510 1509 1509 1509 1510 1511 1512 1514 1516 1519 1522 1524 1527 1531 1534 1537 1540 1542 1545 1547 1549 1551 1552 1553 1555 1556 1557 1558 1559 1559 1560 1560 1561 1561 1562 1562 1562 1563 1563 1564 1564 1565 1566
1516 1520 1523 1523 1518 1513 1509 1509 1508 1509 1510 1511 1512 1513 1516 1518 1521 1524 1528 1532 1535 1538 1541 1543 1545 1547 1549 1551 1553 1554 1555 1556 1557 1558 1559 1560 1560 1561 1561 1561 1561 1562 1562 1562 1563 1563 1564 1565 1565
1516 1523 1527 1519 1514 1509 1507 1508 1508 1509 1509 1511 1511 1513 1515 1518 1521 1524 1527 1532 1535 1538 1541 1544 1546 1548 1550 1551 1553 1554 1556 1557 1558 1558 1559 1559 1560 1560 1561 1561 1561 1561 1561 1562 1562 1563 1563 1564 1565
1515 1524 1517 1508 1505 1504 1505 1506 1508 1509 1509 1511 1512 1513 1515 1518 1520 1524 1527 1530 1534 1537 1541 1544 1546 1548 1550 1552 1553 1554 1556 1557 1558 1559 1559 1559 1560 1560 1560 1560 1560 1560 1560 1561 1561 1561 1562 1563 1563
1512 1515 1507 1504 1502 1502 1504 1507 1508 1509 1510 1509 1510 1512 1515 1518 1520 1524 1527 1531 1534 1538 1541 1543 1546 1549 1550 1552 1553 1555 1556 1557 1558 1559 1559 1559 1560 1560 1560 1559 1559 1559 1559 1559 1559 1560 1560 1561 1562
1510 1507 1505 1503 1502 1502 1504 1506 1508 1508 1509 1508 1509 1511 1514 1517 1520 1522 1526 1530 1534 1537 1541 1543 1546 1549 1551 1552 1554 1555 1556 1557 1558 1558 1559 1559 1559 1559 1559 1558 1558 1557 1557 1557 1558 1558 1558 1559 1560
1508 1506 1504 1503 1503 1503 1505 1506 1508 1508 1508 1509 1510 1512 1514 1516 1520 1523 1526 1530 1534 1537 1540 1543 1546 1548 1550 1552 1553 1555 1556 1557 1558 1558 1558 1558 1558 1558 1557 1557 1556 1556 1556 1556 1556 1557 1557 1558 1558
1506 1505 1505 1504 1504 1504 1506 1507 1508 1507 1508 1509 1511 1513 1515 1517 1519 1523 1526 1529 1533 1536 1539 1542 1545 1548 1550 1552 1553 1555 1556 1557 1557 1558 1558 1558 1557 1557 1556 1556 1555 1555 1555 1555 1555 1555 1555 1556 1556
1505 1507 1507 1506 1506 1506 1508 1510 1506 1505 1508 1509 1511 1513 1515 1517 1520 1522 1525 1528 1532 1536 1539 1542 1544 1547 1549 1552 1554 1555 1556 1557 1557 1558 1558 1557 1557 1556 1555 1554 1554 1553 1553 1553 1553 1554 1554 1554 1555
1506 1511 1514 1507 1506 1507 1512 1513 1505 1506 1507 1508 1510 1513 1515 1517 1519 1521 1524 1528 1532 1535 1538 1541 1544 1546 1549 1551 1553 1554 1556 1557 1557 1557 1557 1557 1556 1555 1554 1554 1553 1552 1552 1552 1552 1552 1552 1553 1553
1512 1517 1514 1509 1505 1506 1510 1510 1505 1505 1507 1509 1510 1512 1513 1515 1518 1521 1524 1527 1531 1534 1537 1540 1543 1546 1548 1551 1553 1554 1556 1557 1557 1557 1557 1557 1556 1555 1554 1553 1552 1552 1552 1551 1551 1551 1551 1551 1551
1516 1514 1512 1511 1504 1506 1509 1508 1505 1505 1506 1507 1509 1511 1512 1514 1516 1519 1522 1526 1530 1533 1537 1540 1542 1545 1548 1550 1552 1554 1555 1556 1557 1557 1557 1557 1556 1555 1554 1553 1552 1552 1551 1551 1551 1550 1550 1550 1550
1505 1509 1511 1507 1502 1506 1508 1507 1505 1505 1506 1507 1507 1509 1511 1512 1515 1518 1521 1525 1529 1532 1535 1538 1541 1544 1547 1549 1551 1552 1554 1555 1556 1556 1557 1556 1556 1555 1554 1553 1552 1552 1551 1551 1550 1550 1549 1549 1549
1504 1509 1509 1505 1502 1505 1509 1507 1504 1504 1504 1505 1505 1506 1508 1510 1513 1517 1520 1523 1527 1530 1534 1537 1540 1543 1546 1548 1550 1552 1553 1554 1555 1555 1556 1556 1556 1555 1554 1553 1553 1552 1551 1551 1550 1550 1549 1548 1548
1503 1506 1505 1507 1506 1507 1509 1510 1506 1503 1503 1503 1504 1505 1506 1508 1511 1514 1517 1521 1525 1529 1532 1536 1539 1542 1545 1547 1549 1551 1552 1553 1554 1554 1554 1555 1555 1554 1554 1553 1553 1552 1551 1551 1550 1549 1549 1548 1548
1505 1498 1499 1504 1512 1519 1515 1525 1509 1504 1502 1501 1501 1503 1504 1507 1510 1513 1516 1520 1523 1527 1531 1535 1538 1541 1544 1546 1548 1549 1550 1551 1552 1553 1553 1553 1554 1553 1553 1553 1553 1552 1552 1551 1550 1549 1548 1548 1548
1498 1497 1501 1507 1513 1520 1519 1524 1515 1505 1504 1499 1498 1500 1502 1505 1508 1511 1515 1518 1522 1526 1530 1534 1537 1540 1542 1545 1546 1548 1549 1550 1550 1551 1551 1552 1552 1552 1552 1552 1552 1552 1551 1550 1549 1549 1548 1548 1547
1496 1502 1508 1516 1521 1529 1520 1524 1518 1507 1500 1495 1494 1496 1499 1502 1506 1510 1514 1517 1521 1525 1529 1532 1535 1538 1541 1543 1545 1546 1547 1548 1548 1549 1549 1550 1550 1551 1551 1551 1551 1551 1550 1550 1549 1548 1548 1547 1547
1498 1513 1529 1529 1536 1531 1519 1521 1514 1494 1490 1490 1491 1493 1496 1500 1504 1508 1511 1515 1518 1522 1526 1530 1533 1536 1539 1541 1543 1544 1545 1546 1546 1547 1547 1548 1549 1549 1550 1550 1550 1550 1549 1549 1548 1548 1547 1546 1546
1499 1508 1527 1535 1537 1530 1519 1519 1502 1488 1486 1486 1488 1491 1494 1498 1502 1505 1509 1513 1516 1520 1524 1527 1531 1534 1536 1539 1540 1542 1543 1544 1544 1545 1545 1546 1547 1548 1548 1548 1548 1548 1548 1547 1547 1547 1546 1545 1545
1499 1506 1508 1523 1528 1532 1522 1511 1495 1485 1485 1485 1487 1490 1492 1495 1499 1503 1507 1510 1514 1518 1521 1525 1528 1531 1534 1536 1538 1540 1541 1542 1542 1543 1543 1544 1545 1545 1546 1546 1546 1546 1546 1545 1545 1545 1544 1544 1543
1492 1502 1515 1524 1533 1534 1522 1515 1507 1489 1486 1485 1486 1488 1490 1493 1497 1500 1504 1508 1511 1515 1519 1522 1525 1528 1531 1533 1535 1537 1538 1539 1540 1541 1541 1542 1543 1543 1543 1544 1544 1544 1544 1543 1543 1543 1542 1542 1541
1498 1503 1512 1523 1525 1532 1532 1517 1488 1484 1481 1482 1483 1484 1487 1490 1493 1497 1501 1505 1509 1512 1516 1519 1522 1525 1528 1530 1532 1534 1536 1537 1538 1539 1539 1540 1540 1541 1541 1541 1541 1541 1541 1541 1541 1540 1540 1539 1539
1490 1497 1508 1517 1521 1526 1528 1515 1479 1478 1477 1478 1479 1481 1484 1487 1490 1494 1498 1502 1505 1508 1511 1515 1518 1521 1524 1527 1529 1531 1533 1534 1535 1536 1537 1537 1538 1538 1539 1539 1539 1539 1539 1538 1538 1537 1537 1536 1536